[[{"header":{"parameterUnit":"m.s-1","parameterCategory":1,"la1":30.2991,"la2":30.254,"lo1":-89.0895,"lo2":-89.0444,"dy":0.0017,"dx":0.0017,"nx":28,"ny":28,"refTime":"2024-06-03T21:00:00:Z","depth":0,"parameterNumber":2,"parameterNumberName":"U-component_of_WINDS"},"data":[0,0,0,0,0,0,0,0,0,0,0,0,0,0,0,0,0,0,0,0,0,0,0,0,0,0,0,0,0,0,0,0,0,0,0,0,0,0,0,0,0,0,0,0,0,0,0,0,0,0,0,0,0,0,0,0,0,0,-0.0607,-0.0606,0,-0.0575,-0.0575,-0.0575,-0.0563,-0.0563,-0.0563,-0.0563,-0.0534,-0.0533,-0.0532,0,0,0,0,0,0,0,0,0,0,0,0,0,-0.0659,-0.0658,-0.0607,-0.0606,-0.0606,-0.0576,-0.0575,-0.0575,-0.0563,-0.0563,-0.0563,-0.0563,-0.0534,-0.0533,-0.0532,0,0,0,0,0,0,0,0,0,0,0,0,0,-0.0633,-0.0658,-0.0607,-0.0596,-0.0595,-0.0576,-0.0575,-0.0575,-0.0563,-0.0563,-0.0563,-0.0563,-0.0534,-0.0533,-0.0532,-0.0521,0,0,-0.0528,-0.0527,0,0,0,0,0,0,0,0,-0.0634,-0.0631,-0.0598,-0.0597,-0.0595,-0.0573,-0.0583,-0.0557,-0.0563,-0.0575,-0.0563,-0.0563,-0.0547,-0.0545,-0.0538,-0.052,-0.0519,-0.0528,-0.0527,-0.0526,-0.0526,0,0,0,0,0,0,0,-0.0636,-0.0632,-0.0594,-0.0598,-0.0596,-0.0594,-0.0591,-0.0578,-0.0561,-0.0574,-0.0573,-0.0569,-0.0546,-0.054,-0.0538,-0.0518,-0.0528,-0.0527,-0.0526,-0.0525,-0.049,-0.049,0,0,0,0,0,0,-0.0639,-0.0634,-0.0595,-0.0593,-0.0616,-0.0593,-0.0589,-0.058,-0.0561,-0.0558,-0.0569,-0.0569,-0.0542,-0.0539,-0.0537,-0.0523,-0.0526,-0.0525,-0.0524,-0.049,-0.049,-0.049,0,0,0,0,0,0,-0.0641,-0.0636,-0.0597,-0.0613,-0.0608,-0.0592,-0.0582,-0.058,-0.0573,-0.0557,-0.0554,-0.0566,-0.0542,-0.0538,-0.0525,-0.0522,-0.0525,-0.0523,-0.0491,-0.049,-0.049,-0.0497,0,0,0,0,0,0,-0.0642,-0.0637,-0.0632,-0.0613,-0.0607,-0.0585,-0.0582,-0.0579,-0.0571,-0.057,-0.0553,-0.0551,-0.0542,-0.0527,-0.0524,-0.052,-0.0522,-0.0491,-0.049,-0.049,-0.0497,-0.0497,-0.0497,0,0,0,0,0,-0.0644,-0.0635,-0.0631,-0.0627,-0.0601,-0.0585,-0.0581,-0.0571,-0.057,-0.0566,-0.0556,-0.0551,-0.0523,-0.0526,-0.0522,-0.0518,-0.0491,-0.0491,-0.049,-0.0497,-0.0497,-0.0497,0,0,0,0,0,0,-0.0654,-0.0632,-0.0628,-0.0613,-0.0601,-0.0583,-0.0576,-0.0571,-0.0559,-0.0559,-0.0547,-0.0544,-0.0531,-0.0524,-0.0527,-0.0508,-0.0507,-0.0506,-0.0513,-0.0513,-0.0513,-0.0515,-0.0521,0,0,0,0,0,-0.0654,-0.0642,-0.0624,-0.0613,-0.0607,-0.0593,-0.0585,-0.0578,-0.0565,-0.056,-0.0549,-0.0538,-0.0527,-0.0519,-0.0508,-0.0496,-0.0492,-0.0491,-0.0491,-0.0491,-0.0491,-0.0484,-0.0484,-0.0489,-0.0489,-0.0489,0,0,-0.0655,-0.0642,-0.0635,-0.0614,-0.0604,-0.0593,-0.0588,-0.0576,-0.0568,-0.0559,-0.0545,-0.0537,-0.0524,-0.0511,-0.0505,-0.0504,-0.0489,-0.0491,-0.0491,-0.049,-0.0484,-0.0483,-0.0483,-0.0489,-0.0489,-0.0489,0,0,-0.0651,-0.0639,-0.0628,-0.0618,-0.0602,-0.0593,-0.059,-0.0573,-0.0567,-0.0554,-0.0547,-0.0537,-0.0518,-0.0508,-0.0501,-0.0494,-0.049,-0.0491,-0.0491,-0.0485,-0.0485,-0.0484,-0.0482,-0.0482,-0.049,-0.049,-0.049,0,-0.0654,-0.0635,-0.0623,-0.0612,-0.0603,-0.0594,-0.0583,-0.0574,-0.0556,-0.0551,-0.055,-0.0526,-0.0516,-0.0502,-0.05,-0.0494,-0.0492,-0.0493,-0.0486,-0.0485,-0.0485,-0.0482,-0.0482,-0.0491,-0.0491,-0.0491,-0.0491,0,-0.064,-0.0628,-0.0621,-0.0603,-0.0594,-0.0583,-0.057,-0.0563,-0.0557,-0.0548,-0.0535,-0.0523,-0.0509,-0.0505,-0.05,-0.049,-0.049,-0.0488,-0.0487,-0.0485,-0.0482,-0.0481,-0.0491,-0.0491,-0.0491,-0.0491,0,0,-0.064,-0.0616,-0.0614,-0.0606,-0.0588,-0.0579,-0.0568,-0.0554,-0.0548,-0.0536,-0.0528,-0.0512,-0.0509,-0.0501,-0.0495,-0.0489,-0.0485,-0.0488,-0.0487,-0.0488,-0.0475,-0.0477,-0.0476,-0.0482,-0.0482,-0.0482,-0.0476,0,-0.0634,-0.0613,-0.0602,-0.0586,-0.0575,-0.0567,-0.0558,-0.0546,-0.0538,-0.0528,-0.052,-0.0509,-0.0506,-0.0502,-0.0496,-0.0487,-0.0482,-0.0487,-0.0475,-0.0474,-0.0478,-0.0475,-0.0476,-0.0471,-0.0475,-0.0475,-0.0475,0,-0.0623,-0.061,-0.0593,-0.0577,-0.0572,-0.0564,-0.0551,-0.0541,-0.0529,-0.0523,-0.0515,-0.0508,-0.0498,-0.0498,-0.0483,-0.0487,-0.0481,-0.0476,-0.0476,-0.0474,-0.0474,-0.0473,-0.047,-0.0469,-0.0473,-0.0473,-0.0473,0,-0.0625,-0.0604,-0.0591,-0.0585,-0.0566,-0.056,-0.0553,-0.054,-0.0533,-0.0522,-0.0517,-0.0505,-0.0498,-0.049,-0.0481,-0.0481,-0.0468,-0.0467,-0.0463,-0.0464,-0.0461,-0.0461,-0.0456,-0.0457,-0.0457,-0.0457,-0.0457,0,-0.0619,-0.0609,-0.0592,-0.0584,-0.0573,-0.0562,-0.0552,-0.0543,-0.0532,-0.0523,-0.0516,-0.0508,-0.0496,-0.0487,-0.048,-0.047,-0.0467,-0.0463,-0.0461,-0.0463,-0.0464,-0.0459,-0.046,-0.0457,-0.0457,-0.0457,-0.0457,0,-0.062,-0.0608,-0.0593,-0.0577,-0.0572,-0.0565,-0.0551,-0.0544,-0.0536,-0.0524,-0.0521,-0.0509,-0.0497,-0.0487,-0.0473,-0.0468,-0.0458,-0.0456,-0.0462,-0.0461,-0.0458,-0.0459,-0.0451,-0.0449,-0.0451,-0.0451,-0.0451,0,-0.0616,-0.0608,-0.0591,-0.0584,-0.0576,-0.0565,-0.0557,-0.0546,-0.0538,-0.0524,-0.0519,-0.0507,-0.0497,-0.048,-0.047,-0.0459,-0.0456,-0.0454,-0.0455,-0.0458,-0.0457,-0.0457,-0.0457,-0.0455,-0.0455,-0.0455,-0.0455,0,-0.0612,-0.0606,-0.0595,-0.0582,-0.0573,-0.0562,-0.0551,-0.0546,-0.0533,-0.0525,-0.0514,-0.0506,-0.0491,-0.048,-0.0468,-0.0461,-0.0456,-0.0455,-0.0453,-0.0456,-0.046,-0.0458,-0.0462,-0.0455,-0.0455,-0.0455,-0.0455,-0.0455,-0.061,-0.0603,-0.059,-0.0577,-0.0568,-0.0558,-0.055,-0.0541,-0.0531,-0.0517,-0.0512,-0.05,-0.0489,-0.0472,-0.0465,-0.0456,-0.0456,-0.0454,-0.0453,-0.0453,-0.0453,-0.0461,-0.0454,-0.0454,-0.0454,-0.0454,-0.0454,0,-0.0606,-0.0597,-0.0585,-0.057,-0.0561,-0.0557,-0.0545,-0.0537,-0.0527,-0.0516,-0.0507,-0.0493,-0.0483,-0.0472,-0.0461,-0.0456,-0.0454,-0.0453,-0.0454,-0.0452,-0.0455,-0.0457,-0.0456,-0.0456,-0.0456,-0.0456,-0.0456,-0.0456,-0.0602,-0.059,-0.0583,-0.0566,-0.0557,-0.0545,-0.0539,-0.053,-0.0522,-0.0507,-0.0498,-0.0491,-0.048,-0.0468,-0.0459,-0.0456,-0.0452,-0.0453,-0.045,-0.0452,-0.0452,-0.0452,-0.0454,-0.0452,-0.0452,-0.0448,-0.0448,-0.0448]},{"header":{"parameterUnit":"m.s-1","parameterCategory":1,"la1":30.2991,"la2":30.254,"lo1":-89.0895,"lo2":-89.0444,"dy":0.0017,"dx":0.0017,"nx":28,"ny":28,"refTime":"2024-06-03T21:00:00:Z","depth":0,"parameterNumber":3,"parameterNumberName":"V-component_of_WINDS"},"data":[0,0,0,0,0,0,0,0,0,0,0,0,0,0,0,0,0,0,0,0,0,0,0,0,0,0,0,0,0,0,0,0,0,0,0,0,0,0,0,0,0,0,0,0,0,0,0,0,0,0,0,0,0,0,0,0,0,0,4.0352,4.0353,0,4.0383,4.0383,4.0383,4.0333,4.0332,4.033,4.0329,4.0356,4.0358,4.036,0,0,0,0,0,0,0,0,0,0,0,0,0,4.0247,4.025,4.0352,4.0353,4.0353,4.0383,4.0383,4.0383,4.0334,4.0332,4.033,4.0328,4.0355,4.0358,4.0361,0,0,0,0,0,0,0,0,0,0,0,0,0,4.0287,4.025,4.0352,4.0332,4.0331,4.0382,4.0383,4.0383,4.0334,4.0332,4.0329,4.0327,4.0354,4.0358,4.0361,4.0433,0,0,4.0372,4.0373,0,0,0,0,0,0,0,0,4.0285,4.0291,4.0335,4.0334,4.0332,4.0352,4.0356,4.04,4.0335,4.0333,4.0328,4.0326,4.0356,4.0359,4.0371,4.0434,4.0436,4.0372,4.0374,4.0375,4.0376,0,0,0,0,0,0,0,4.0282,4.0289,4.0364,4.0335,4.0334,4.032,4.0323,4.0364,4.0358,4.0333,4.0329,4.0334,4.0355,4.0367,4.0371,4.0436,4.0372,4.0375,4.0377,4.0378,4.0559,4.0561,0,0,0,0,0,0,4.0282,4.0287,4.0363,4.0365,4.0302,4.0324,4.0327,4.0348,4.0358,4.0357,4.0336,4.0331,4.0363,4.0367,4.0372,4.0455,4.0375,4.0379,4.0381,4.0556,4.0559,4.0562,0,0,0,0,0,0,4.028,4.029,4.0362,4.0325,4.0333,4.0329,4.0352,4.035,4.0362,4.036,4.0358,4.035,4.0361,4.0367,4.0418,4.0456,4.038,4.0383,4.0553,4.0557,4.0561,4.0625,0,0,0,0,0,0,4.0277,4.0289,4.0317,4.0326,4.0336,4.0409,4.0355,4.0352,4.0369,4.0363,4.0373,4.0372,4.0359,4.0413,4.0422,4.0459,4.0386,4.0549,4.0555,4.056,4.0619,4.063,4.064,0,0,0,0,0,4.0274,4.0334,4.0319,4.0329,4.0371,4.0412,4.0417,4.0402,4.0372,4.0399,4.0398,4.0371,4.0451,4.0419,4.0428,4.0467,4.0547,4.0553,4.0559,4.0614,4.0628,4.064,0,0,0,0,0,0,4.0328,4.0335,4.0318,4.0383,4.0398,4.0403,4.0438,4.0418,4.044,4.0433,4.0413,4.0416,4.0471,4.0474,4.0439,4.0537,4.0493,4.0502,4.0532,4.0545,4.0556,4.0553,4.0389,0,0,0,0,0,4.0348,4.0382,4.0385,4.0442,4.045,4.0443,4.046,4.0448,4.0461,4.0466,4.0468,4.0481,4.0509,4.0528,4.0553,4.062,4.062,4.0651,4.0661,4.067,4.0677,4.0711,4.0724,4.0582,4.0582,4.0582,0,0,4.0389,4.0396,4.0419,4.0453,4.0462,4.0496,4.0448,4.0486,4.051,4.0471,4.052,4.0522,4.0535,4.0595,4.0621,4.0599,4.0716,4.0678,4.0685,4.0687,4.0719,4.0732,4.0744,4.0587,4.0586,4.0585,0,0,4.048,4.049,4.0538,4.0548,4.0564,4.0559,4.057,4.0579,4.0579,4.0628,4.0599,4.0628,4.0676,4.0686,4.0698,4.0793,4.0768,4.0801,4.0855,4.0889,4.09,4.091,4.0942,4.0954,4.0808,4.0809,4.0809,0,4.0528,4.0579,4.0564,4.0605,4.062,4.0587,4.0635,4.0645,4.0668,4.0678,4.0654,4.0714,4.072,4.0781,4.0804,4.0815,4.0826,4.08,4.09,4.091,4.0918,4.0949,4.0962,4.0812,4.0812,4.0812,4.0811,0,4.0637,4.0673,4.071,4.0733,4.0752,4.0796,4.0786,4.0807,4.0793,4.079,4.084,4.0847,4.0872,4.0886,4.0872,4.0944,4.093,4.0904,4.0859,4.0936,4.0964,4.0976,4.0818,4.0817,4.0815,4.0814,0,0,4.0763,4.0778,4.0791,4.0801,4.0816,4.0842,4.0884,4.091,4.0928,4.0944,4.0977,4.1019,4.0995,4.1008,4.0995,4.1025,4.1098,4.0994,4.0994,4.1012,4.1175,4.1194,4.1208,4.1082,4.1084,4.1086,4.1174,0,4.0853,4.0926,4.0913,4.0983,4.1015,4.0984,4.102,4.1032,4.1031,4.1056,4.1054,4.1083,4.1049,4.1057,4.1085,4.1083,4.113,4.1076,4.1111,4.1113,4.1108,4.1223,4.1244,4.1326,4.1185,4.1187,4.1188,0,4.0967,4.0989,4.1062,4.1071,4.1084,4.1116,4.1139,4.1165,4.1177,4.1173,4.1188,4.117,4.1209,4.1166,4.122,4.1184,4.1197,4.1198,4.1201,4.1203,4.1154,4.1227,4.1352,4.1364,4.1206,4.1204,4.1203,0,4.105,4.1097,4.1147,4.1157,4.1168,4.1192,4.1197,4.1208,4.1224,4.1243,4.1253,4.1277,4.1289,4.1307,4.1295,4.1265,4.135,4.1306,4.1347,4.1347,4.1365,4.1364,4.1493,4.1377,4.1376,4.1376,4.1376,0,4.1151,4.1197,4.1184,4.1215,4.1265,4.1249,4.1299,4.13,4.131,4.1339,4.1314,4.1342,4.1325,4.1351,4.1341,4.1386,4.1392,4.139,4.1386,4.1391,4.1391,4.1399,4.1392,4.1379,4.1379,4.1378,4.1378,0,4.1251,4.1245,4.1297,4.1304,4.1307,4.1343,4.1348,4.1376,4.1372,4.141,4.1417,4.1412,4.1441,4.1431,4.1462,4.1456,4.1513,4.1503,4.1509,4.1506,4.1547,4.1543,4.1684,4.1701,4.1575,4.1576,4.1577,0,4.1316,4.135,4.1361,4.1379,4.1387,4.1417,4.1433,4.1419,4.1437,4.1454,4.1479,4.1506,4.1527,4.1575,4.1573,4.1596,4.1586,4.1634,4.1589,4.1592,4.1585,4.1582,4.1585,4.1642,4.1644,4.1645,4.1646,0,4.143,4.1425,4.145,4.1475,4.1495,4.1514,4.1529,4.1545,4.1532,4.1553,4.1583,4.16,4.1632,4.1659,4.168,4.1684,4.1662,4.166,4.1671,4.1675,4.1677,4.1675,4.1532,4.1657,4.1656,4.1655,4.1654,4.1654,4.1513,4.1542,4.1554,4.1582,4.1593,4.1608,4.1634,4.1634,4.166,4.1685,4.1675,4.1709,4.1719,4.1746,4.1753,4.1779,4.176,4.1776,4.1779,4.1783,4.1788,4.1674,4.1783,4.1782,4.1782,4.1782,4.1782,0,4.1625,4.1631,4.1658,4.1681,4.1703,4.1682,4.1698,4.1718,4.1749,4.1761,4.1782,4.1816,4.1842,4.1842,4.1865,4.1886,4.1876,4.1892,4.189,4.1891,4.1804,4.1792,4.1899,4.1899,4.1899,4.1899,4.1899,4.1899,4.1685,4.1733,4.1729,4.1781,4.1786,4.182,4.1831,4.1844,4.1854,4.1893,4.1915,4.1915,4.1922,4.1945,4.1968,4.1967,4.1976,4.1996,4.1991,4.1909,4.1897,4.1886,4.1875,4.1998,4.1998,4.2076,4.2077,4.2077]}]]